[[{"header":{"parameterUnit":"m.s-1","parameterCategory":1,"la1":30.2991,"la2":30.254,"lo1":-89.0895,"lo2":-89.0444,"dy":0.0017,"dx":0.0017,"nx":28,"ny":28,"refTime":"2024-03-31T09:00:00:Z","depth":0,"parameterNumber":2,"parameterNumberName":"U-component_of_WINDS"},"data":[0,0,0,0,0,0,0,0,0,0,0,0,0,0,0,0,0,0,0,0,0,0,0,0,0,0,0,0,0,0,0,0,0,0,0,0,0,0,0,0,0,0,0,0,0,0,0,0,0,0,0,0,0,0,0,0,0,0,-0.8133,-0.8133,0,-0.8173,-0.8173,-0.8174,-0.8175,-0.8175,-0.8174,-0.8174,-0.822,-0.8222,-0.8223,0,0,0,0,0,0,0,0,0,0,0,0,0,-0.8064,-0.8065,-0.8133,-0.8133,-0.8134,-0.8173,-0.8173,-0.8174,-0.8176,-0.8175,-0.8174,-0.8174,-0.8219,-0.8221,-0.8223,0,0,0,0,0,0,0,0,0,0,0,0,0,-0.8098,-0.8066,-0.8133,-0.8139,-0.814,-0.8172,-0.8173,-0.8174,-0.8176,-0.8175,-0.8174,-0.8174,-0.8219,-0.8221,-0.8224,-0.8254,0,0,-0.8231,-0.8232,0,0,0,0,0,0,0,0,-0.8096,-0.8101,-0.8138,-0.8139,-0.814,-0.8168,-0.8166,-0.8201,-0.8176,-0.8162,-0.8174,-0.8173,-0.8204,-0.8207,-0.8217,-0.8256,-0.8258,-0.8232,-0.8233,-0.8234,-0.8235,0,0,0,0,0,0,0,-0.8094,-0.8099,-0.8149,-0.8138,-0.814,-0.8142,-0.8146,-0.8172,-0.8187,-0.8164,-0.8164,-0.8168,-0.8204,-0.8214,-0.8218,-0.8258,-0.8231,-0.8234,-0.8235,-0.8236,-0.8326,-0.8327,0,0,0,0,0,0,-0.8089,-0.8097,-0.8148,-0.815,-0.8116,-0.8144,-0.8148,-0.816,-0.8186,-0.819,-0.8169,-0.8168,-0.821,-0.8215,-0.8219,-0.8257,-0.8234,-0.8236,-0.8238,-0.8325,-0.8326,-0.8327,0,0,0,0,0,0,-0.8088,-0.8094,-0.8146,-0.8124,-0.813,-0.8146,-0.8159,-0.8161,-0.8171,-0.819,-0.8193,-0.8176,-0.821,-0.8216,-0.8245,-0.8259,-0.8238,-0.824,-0.8324,-0.8326,-0.8327,-0.8332,0,0,0,0,0,0,-0.8086,-0.8093,-0.8103,-0.8124,-0.8131,-0.8169,-0.816,-0.8162,-0.8175,-0.8174,-0.8198,-0.8201,-0.821,-0.8241,-0.8248,-0.8262,-0.8242,-0.8323,-0.8325,-0.8326,-0.8331,-0.8334,-0.8336,0,0,0,0,0,-0.8083,-0.8104,-0.8104,-0.811,-0.8144,-0.817,-0.8175,-0.8183,-0.8176,-0.8187,-0.82,-0.82,-0.8256,-0.8244,-0.8251,-0.8267,-0.8322,-0.8324,-0.8326,-0.833,-0.8333,-0.8336,0,0,0,0,0,0,-0.8087,-0.8107,-0.8107,-0.8134,-0.815,-0.817,-0.8184,-0.8186,-0.8205,-0.8204,-0.8215,-0.822,-0.8249,-0.8261,-0.8247,-0.8298,-0.8289,-0.8292,-0.8289,-0.8292,-0.8295,-0.8292,-0.8244,0,0,0,0,0,-0.809,-0.8108,-0.8125,-0.8148,-0.8156,-0.8169,-0.818,-0.8185,-0.8203,-0.821,-0.8225,-0.8243,-0.8265,-0.8279,-0.83,-0.8333,-0.8339,-0.8347,-0.8349,-0.8351,-0.8354,-0.8374,-0.8378,-0.8334,-0.8334,-0.8334,0,0,-0.8099,-0.8112,-0.8122,-0.8149,-0.8162,-0.8182,-0.8174,-0.8195,-0.8211,-0.8214,-0.8242,-0.8254,-0.8275,-0.8306,-0.8321,-0.8317,-0.8368,-0.8354,-0.8355,-0.8357,-0.8376,-0.8381,-0.8384,-0.8335,-0.8335,-0.8335,0,0,-0.8124,-0.8135,-0.8155,-0.8168,-0.8187,-0.8196,-0.8201,-0.8221,-0.8228,-0.8256,-0.8259,-0.8279,-0.8316,-0.8331,-0.8344,-0.8376,-0.8378,-0.8383,-0.8396,-0.8415,-0.8419,-0.8422,-0.8435,-0.8439,-0.8386,-0.8386,-0.8386,0,-0.8132,-0.816,-0.8166,-0.8187,-0.8199,-0.8201,-0.8224,-0.8236,-0.8262,-0.8272,-0.8266,-0.8314,-0.8328,-0.8364,-0.8372,-0.8382,-0.8389,-0.8381,-0.8417,-0.8421,-0.8424,-0.8436,-0.8441,-0.8387,-0.8387,-0.8387,-0.8387,0,-0.817,-0.8189,-0.8204,-0.8227,-0.8241,-0.8263,-0.8274,-0.8288,-0.8292,-0.8302,-0.8332,-0.8349,-0.8375,-0.8384,-0.8388,-0.842,-0.8417,-0.8415,-0.8406,-0.8428,-0.844,-0.8445,-0.8387,-0.8387,-0.8387,-0.8387,0,0,-0.8198,-0.8224,-0.8229,-0.824,-0.8262,-0.8278,-0.8301,-0.8324,-0.8336,-0.8355,-0.8375,-0.8407,-0.8404,-0.8419,-0.8426,-0.8442,-0.8468,-0.8438,-0.8438,-0.8443,-0.8507,-0.8509,-0.8514,-0.8469,-0.847,-0.8471,-0.8505,0,-0.8226,-0.8263,-0.827,-0.8304,-0.8323,-0.8326,-0.8346,-0.8363,-0.8373,-0.8392,-0.8405,-0.8427,-0.8422,-0.8431,-0.8447,-0.8461,-0.8481,-0.8459,-0.849,-0.8491,-0.8485,-0.852,-0.8522,-0.8554,-0.851,-0.851,-0.8511,0,-0.8263,-0.8281,-0.8316,-0.8336,-0.8344,-0.8362,-0.8384,-0.8402,-0.8422,-0.8428,-0.8445,-0.845,-0.8476,-0.8465,-0.8502,-0.8487,-0.85,-0.851,-0.8511,-0.8515,-0.8503,-0.8526,-0.8564,-0.8569,-0.8518,-0.8517,-0.8517,0,-0.8281,-0.8314,-0.8339,-0.8349,-0.8372,-0.8385,-0.8396,-0.8414,-0.8428,-0.8449,-0.8458,-0.8482,-0.8495,-0.8515,-0.8527,-0.8518,-0.8563,-0.8554,-0.8571,-0.8571,-0.8581,-0.858,-0.8622,-0.8588,-0.8588,-0.8588,-0.8588,0,-0.8312,-0.8334,-0.8348,-0.8364,-0.8389,-0.8398,-0.8423,-0.8434,-0.8451,-0.8471,-0.8475,-0.8494,-0.8508,-0.853,-0.854,-0.857,-0.8576,-0.8583,-0.8586,-0.8583,-0.8582,-0.8593,-0.8591,-0.859,-0.8589,-0.8589,-0.8589,0,-0.8337,-0.8347,-0.8375,-0.8395,-0.84,-0.8418,-0.8436,-0.8453,-0.8463,-0.8488,-0.8495,-0.8512,-0.8537,-0.8551,-0.8584,-0.859,-0.8624,-0.8625,-0.8617,-0.8618,-0.8635,-0.8634,-0.8686,-0.8694,-0.8654,-0.8654,-0.8654,0,-0.8356,-0.8373,-0.8394,-0.8407,-0.8417,-0.8438,-0.8452,-0.8461,-0.8476,-0.85,-0.8515,-0.854,-0.8561,-0.8602,-0.8619,-0.8644,-0.8647,-0.8663,-0.8651,-0.8648,-0.8648,-0.8647,-0.865,-0.8666,-0.8666,-0.8666,-0.8667,0,-0.839,-0.8394,-0.8413,-0.8434,-0.845,-0.8467,-0.8484,-0.8495,-0.8508,-0.8525,-0.855,-0.8566,-0.8599,-0.8625,-0.8652,-0.8666,-0.8669,-0.867,-0.8676,-0.8674,-0.8669,-0.8673,-0.8624,-0.8669,-0.8669,-0.8669,-0.8669,-0.8669,-0.8414,-0.8429,-0.8446,-0.8467,-0.8481,-0.8497,-0.8514,-0.8526,-0.8547,-0.8573,-0.8578,-0.8605,-0.8627,-0.8662,-0.8677,-0.87,-0.8697,-0.8705,-0.8707,-0.8709,-0.871,-0.8664,-0.8705,-0.8705,-0.8705,-0.8705,-0.8705,0,-0.8449,-0.846,-0.8479,-0.8502,-0.852,-0.8519,-0.8539,-0.8554,-0.8577,-0.8595,-0.8616,-0.8646,-0.8671,-0.869,-0.8716,-0.8731,-0.8734,-0.8738,-0.8738,-0.8741,-0.8711,-0.8704,-0.8736,-0.8736,-0.8736,-0.8736,-0.8736,-0.8736,-0.8469,-0.8495,-0.8501,-0.8535,-0.8547,-0.8572,-0.8583,-0.8599,-0.8614,-0.8646,-0.8667,-0.8678,-0.8698,-0.8726,-0.875,-0.8755,-0.8765,-0.8769,-0.8775,-0.8746,-0.8743,-0.874,-0.8733,-0.8771,-0.8771,-0.8803,-0.8804,-0.8804]},{"header":{"parameterUnit":"m.s-1","parameterCategory":1,"la1":30.2991,"la2":30.254,"lo1":-89.0895,"lo2":-89.0444,"dy":0.0017,"dx":0.0017,"nx":28,"ny":28,"refTime":"2024-03-31T09:00:00:Z","depth":0,"parameterNumber":3,"parameterNumberName":"V-component_of_WINDS"},"data":[0,0,0,0,0,0,0,0,0,0,0,0,0,0,0,0,0,0,0,0,0,0,0,0,0,0,0,0,0,0,0,0,0,0,0,0,0,0,0,0,0,0,0,0,0,0,0,0,0,0,0,0,0,0,0,0,0,0,1.7204,1.7203,0,1.714,1.7139,1.7138,1.7089,1.7088,1.7088,1.7088,1.7017,1.7016,1.7014,0,0,0,0,0,0,0,0,0,0,0,0,0,1.7279,1.7278,1.7204,1.7203,1.7202,1.714,1.7139,1.7138,1.7089,1.7088,1.7088,1.7087,1.7018,1.7016,1.7014,0,0,0,0,0,0,0,0,0,0,0,0,0,1.7234,1.7278,1.7204,1.717,1.7167,1.714,1.7139,1.7138,1.7089,1.7088,1.7088,1.7087,1.7018,1.7016,1.7014,1.7014,0,0,1.7007,1.7006,0,0,0,0,0,0,0,0,1.7236,1.7231,1.7176,1.7173,1.7168,1.7122,1.714,1.7096,1.7089,1.7118,1.7088,1.7087,1.7052,1.7047,1.7037,1.7011,1.7008,1.7007,1.7006,1.7005,1.7004,0,0,0,0,0,0,0,1.724,1.7234,1.7178,1.7175,1.7171,1.7157,1.715,1.7131,1.709,1.7116,1.7112,1.7105,1.705,1.7039,1.7035,1.7007,1.7007,1.7005,1.7004,1.7003,1.6976,1.6977,0,0,0,0,0,0,1.7249,1.7237,1.718,1.7176,1.7202,1.7156,1.7148,1.7137,1.709,1.7082,1.7106,1.7103,1.7043,1.7037,1.7032,1.7028,1.7005,1.7003,1.7002,1.6975,1.6976,1.6977,0,0,0,0,0,0,1.7251,1.7244,1.7183,1.7205,1.7197,1.7156,1.7144,1.7136,1.7125,1.7083,1.7074,1.7103,1.7042,1.7035,1.7019,1.7025,1.7002,1.7,1.6975,1.6976,1.6976,1.7021,0,0,0,0,0,0,1.7253,1.7245,1.7246,1.7206,1.7196,1.7173,1.7144,1.7136,1.7122,1.7118,1.7077,1.707,1.7041,1.7022,1.7017,1.7021,1.6998,1.6974,1.6975,1.6976,1.7018,1.7023,1.7027,0,0,0,0,0,1.7256,1.726,1.7246,1.724,1.7196,1.7173,1.7167,1.7135,1.7123,1.7122,1.7095,1.7071,1.7025,1.7021,1.7014,1.7018,1.6973,1.6975,1.6976,1.7017,1.7022,1.7027,0,0,0,0,0,0,1.7301,1.7254,1.7238,1.723,1.7206,1.7165,1.7163,1.7142,1.712,1.7117,1.7077,1.7068,1.7056,1.7035,1.7032,1.7015,1.6996,1.6996,1.7029,1.7034,1.7038,1.7043,1.6996,0,0,0,0,0,1.731,1.7297,1.7256,1.7253,1.7242,1.7205,1.7194,1.7171,1.7144,1.7133,1.7105,1.7078,1.7057,1.7044,1.7023,1.7015,1.7005,1.7014,1.7019,1.7022,1.7023,1.7015,1.7019,1.6981,1.6981,1.6981,0,0,1.7328,1.7301,1.7295,1.7261,1.724,1.7225,1.7196,1.7183,1.7171,1.7131,1.7114,1.7092,1.7059,1.7047,1.704,1.7029,1.7031,1.7024,1.7027,1.7025,1.7017,1.7021,1.7024,1.6982,1.6982,1.6982,0,0,1.7354,1.7333,1.7328,1.7307,1.7276,1.7251,1.725,1.7212,1.7196,1.7179,1.7148,1.7133,1.7099,1.7076,1.706,1.7078,1.7054,1.7072,1.7093,1.7087,1.709,1.7092,1.7097,1.71,1.7072,1.7072,1.7072,0,1.7381,1.736,1.7327,1.7315,1.7301,1.7265,1.7258,1.7239,1.7202,1.7192,1.718,1.7136,1.7112,1.7093,1.7098,1.7086,1.7082,1.7076,1.7092,1.7094,1.7096,1.71,1.7102,1.7075,1.7074,1.7074,1.7074,0,1.7393,1.7379,1.7378,1.7344,1.7329,1.732,1.7285,1.7273,1.7252,1.7228,1.721,1.718,1.7151,1.7145,1.7124,1.7123,1.7118,1.71,1.708,1.7102,1.7106,1.7107,1.7078,1.7077,1.7076,1.7076,0,0,1.7446,1.7394,1.7395,1.7378,1.7341,1.7328,1.7316,1.729,1.728,1.7256,1.7244,1.7216,1.7199,1.7181,1.7157,1.7151,1.7165,1.7134,1.7132,1.714,1.7161,1.7175,1.7177,1.715,1.715,1.715,1.7164,0,1.7466,1.7445,1.7415,1.7403,1.7388,1.7353,1.7343,1.7318,1.7295,1.7278,1.7251,1.7232,1.7212,1.7201,1.7194,1.7165,1.7169,1.7164,1.7137,1.7136,1.7146,1.7179,1.7193,1.7207,1.7165,1.7165,1.7165,0,1.7486,1.7464,1.7451,1.7414,1.7407,1.7398,1.7371,1.7356,1.7326,1.7309,1.729,1.7264,1.7248,1.723,1.7207,1.7204,1.7191,1.7175,1.7175,1.717,1.7152,1.7175,1.7211,1.7213,1.7167,1.7167,1.7167,0,1.7525,1.7492,1.748,1.7467,1.7424,1.7418,1.74,1.7369,1.7355,1.7331,1.7321,1.7295,1.728,1.7259,1.7226,1.7217,1.7206,1.7186,1.719,1.7191,1.7189,1.719,1.7223,1.7182,1.7182,1.7182,1.7182,0,1.755,1.7543,1.7497,1.749,1.748,1.7445,1.7436,1.7414,1.7387,1.7374,1.7341,1.7329,1.7286,1.7268,1.7242,1.7226,1.7219,1.7204,1.7197,1.7207,1.7209,1.7197,1.7195,1.7182,1.7182,1.7182,1.7182,0,1.7592,1.7561,1.7545,1.7506,1.7495,1.749,1.7455,1.7445,1.7421,1.7404,1.7397,1.7358,1.7335,1.73,1.7266,1.7248,1.7236,1.7225,1.7247,1.7242,1.7248,1.7248,1.7275,1.7276,1.7236,1.7236,1.7237,0,1.761,1.7604,1.7564,1.7553,1.7536,1.7518,1.7504,1.7468,1.7454,1.7419,1.7414,1.7388,1.7366,1.7331,1.7298,1.7271,1.7259,1.727,1.7254,1.7264,1.7258,1.7258,1.7257,1.7274,1.7274,1.7275,1.7275,0,1.7645,1.7629,1.7611,1.7586,1.757,1.7548,1.7525,1.7518,1.7477,1.7462,1.7439,1.7422,1.7388,1.7362,1.7331,1.731,1.7285,1.7281,1.728,1.7289,1.7302,1.7294,1.7256,1.728,1.7279,1.7279,1.7279,1.7279,1.7674,1.7667,1.7638,1.7617,1.7596,1.7575,1.7564,1.7538,1.7518,1.7489,1.7468,1.7446,1.7415,1.7371,1.7351,1.7331,1.7321,1.732,1.732,1.732,1.7323,1.7306,1.7325,1.7325,1.7325,1.7325,1.7325,0,1.7707,1.7686,1.7668,1.7637,1.762,1.76,1.7573,1.756,1.7541,1.7515,1.7494,1.7466,1.7441,1.7406,1.7378,1.737,1.7357,1.7363,1.7363,1.7358,1.7335,1.7338,1.7374,1.7374,1.7374,1.7373,1.7373,1.7373,1.7722,1.7708,1.7689,1.7664,1.7643,1.7622,1.7608,1.7587,1.7566,1.7537,1.7517,1.7495,1.7465,1.7434,1.741,1.74,1.739,1.74,1.7386,1.7365,1.736,1.7356,1.7358,1.7398,1.7398,1.7412,1.7412,1.7412]}]]